Weather reports worldwide

Advertisment
Leek Thorncliffe, United Kingdom (3330): temperature & dewpoint: 09.08.2018 20:00:00 - 15.08.2018 20:00:00 (BST)Leek Thorncliffe, United Kingdom (3330): temperature -20cm & temperature -100cm: 09.08.2018 20:00:00 - 15.08.2018 20:00:00 (BST)Leek Thorncliffe, United Kingdom (3330): wind speed & gusts: 09.08.2018 20:00:00 - 15.08.2018 20:00:00 (BST)Leek Thorncliffe, United Kingdom (3330): wind direction: 09.08.2018 20:00:00 - 15.08.2018 20:00:00 (BST)Leek Thorncliffe, United Kingdom (3330): reduced air pressure: 09.08.2018 20:00:00 - 15.08.2018 20:00:00 (BST)Leek Thorncliffe, United Kingdom (3330): visibility: 09.08.2018 20:00:00 - 15.08.2018 20:00:00 (BST)Leek Thorncliffe, United Kingdom (3330): precipitation: 09.08.2018 20:00:00 - 15.08.2018 20:00:00 (BST)
Date & Time tt [°C] td [°C] tt -20cm [°C] tt -100cm [°C] ff [km/h] ff [kn] fx [km/h] fx [kn] dd ppp [hPa] vv [km] rr [mm]
15.08.2018 20:00:00 - - - - - - - - - - - -
15.08.2018 19:00:00 17,8 14,7 - - 26 14 46 25 SW 1012,5 40 0,0
15.08.2018 18:00:00 18,6 14,8 - - 22 12 - - SW 1012,7 40 0,0
15.08.2018 17:00:00 19,2 14,8 - - 28 15 46 25 WSW 1013,0 45 0,0
15.08.2018 16:00:00 19,4 14,8 - - 21 11 - - WSW 1013,4 45 0,0
15.08.2018 15:00:00 19,6 15,0 - - 22 12 - - W 1013,9 40 0,0
15.08.2018 14:00:00 19,6 15,5 - - 24 13 - - WSW 1014,4 40 0,0
15.08.2018 13:00:00 19,0 15,2 - - 18 10 - - WSW 1014,4 45 0,0
15.08.2018 12:00:00 18,5 15,6 - - 18 10 - - WSW 1014,8 29 0,0
15.08.2018 11:00:00 17,4 14,3 - - 21 11 - - WSW 1015,1 35 0,0
15.08.2018 10:00:00 17,5 14,4 16,7 15,9 24 13 - - WSW 1015,0 35 0,0
15.08.2018 09:00:00 15,9 14,8 - - 15 8 - - SW 1015,2 28 0,0
15.08.2018 08:00:00 14,9 14,3 - - 13 7 - - SW 1015,4 15 0,0
15.08.2018 07:00:00 14,3 13,7 - - 13 7 - - SW 1015,4 12 0,0
15.08.2018 06:00:00 14,3 13,5 - - 9 5 - - SW 1015,7 11 0,0
15.08.2018 05:00:00 14,2 13,5 - - 15 8 - - SW 1015,6 11 0,0
15.08.2018 04:00:00 14,2 13,4 - - 16 9 - - SW 1016,0 11 0,0
15.08.2018 03:00:00 14,4 13,4 - - 16 9 - - SW 1016,2 11 0,0
15.08.2018 02:00:00 14,7 13,1 - - 13 7 - - SW 1016,4 18 0,0
15.08.2018 01:00:00 14,9 13,1 - - 8 4 - - SW 1016,7 21 0,0
15.08.2018 00:00:00 15,1 13,4 - - 9 5 - - SW 1016,6 22 0,0
14.08.2018 23:00:00 15,5 13,9 - - 11 6 - - SW 1016,6 22 0,0
14.08.2018 22:00:00 15,8 14,1 - - 13 7 - - SSW 1016,4 25 0,0
14.08.2018 21:00:00 15,6 13,7 - - 11 6 - - WSW 1016,3 29 0,0
14.08.2018 20:00:00 16,9 14,1 - - 16 9 - - W 1015,7 45 0,0
14.08.2018 19:00:00 17,8 13,9 - - 15 8 - - W 1015,6 45 0,0
14.08.2018 18:00:00 18,0 14,4 - - 16 9 - - W 1015,6 50 0,0
14.08.2018 17:00:00 17,9 14,6 - - 18 10 - - W 1015,5 40 0,0
14.08.2018 16:00:00 18,2 14,0 - - 16 9 - - W 1015,4 50 0,0
14.08.2018 15:00:00 18,2 14,2 - - 13 7 - - W 1015,4 50 0,0
14.08.2018 14:00:00 17,6 14,0 - - 11 6 - - W 1015,3 40 0,0
14.08.2018 13:00:00 17,5 13,6 - - 13 7 - - W 1015,2 50 0,0
14.08.2018 12:00:00 17,3 13,4 - - 13 7 - - W 1015,1 45 0,0
14.08.2018 11:00:00 17,1 14,2 - - 15 8 - - W 1014,8 25 0,0
14.08.2018 10:00:00 15,1 13,6 16,5 16,0 13 7 - - WSW 1015,1 27 0,0
14.08.2018 09:00:00 13,8 12,9 - - 8 4 - - WSW 1015,0 14 0,0
14.08.2018 08:00:00 12,9 12,7 - - 4 2 - - SW 1014,6 16 0,0
14.08.2018 07:00:00 12,2 12,0 - - 5 3 - - WNW 1014,4 10 0,0
14.08.2018 06:00:00 12,0 11,8 - - 8 4 - - NNW 1014,1 8 0,0
14.08.2018 05:00:00 12,3 12,3 - - 4 2 - - N 1013,5 2,8 0,0
14.08.2018 04:00:00 12,2 12,1 - - 8 4 - - NNW 1013,6 3,0 0,0
14.08.2018 03:00:00 11,7 11,6 - - 8 4 - - NNW 1013,4 4,1 0,0
14.08.2018 02:00:00 11,9 11,7 - - 8 4 - - NNW 1013,4 3,7 0,0
14.08.2018 01:00:00 12,0 11,7 - - 9 5 - - NW 1013,4 4,3 0,0
14.08.2018 00:00:00 12,4 11,8 - - 8 4 - - NW 1012,8 8 0,0
13.08.2018 23:00:00 12,4 11,6 - - 8 4 - - NW 1012,2 12 0,0
13.08.2018 22:00:00 13,0 12,0 - - 5 3 - - WNW 1012,1 15 0,0
13.08.2018 21:00:00 13,7 12,3 - - 9 5 - - NW 1011,4 22 0,0
13.08.2018 20:00:00 14,8 12,8 - - 9 5 - - NW 1010,7 26 0,0
13.08.2018 19:00:00 14,8 13,4 - - 13 7 - - WNW 1009,9 29 0,0
13.08.2018 18:00:00 15,1 13,9 - - 13 7 - - WNW 1009,4 21 0,0
13.08.2018 17:00:00 15,9 14,7 - - 18 10 - - WNW 1008,9 19 0,0
13.08.2018 16:00:00 15,9 15,5 - - 15 8 - - WNW 1008,5 10 0,4
13.08.2018 15:00:00 15,6 15,3 - - 18 10 - - WNW 1008,1 2,1 1,0
13.08.2018 14:00:00 16,7 15,5 - - 9 5 - - WNW 1007,6 12 0,0
13.08.2018 13:00:00 16,6 14,9 - - 9 5 - - NW 1007,5 6 0,0
13.08.2018 12:00:00 16,6 14,4 - - 9 5 - - NNW 1007,1 30 0,0
13.08.2018 11:00:00 16,0 14,1 - - 9 5 - - WNW 1006,9 22 0,0
13.08.2018 10:00:00 15,5 13,8 16,9 16,0 9 5 - - NW 1006,6 22 0,0
13.08.2018 09:00:00 14,3 13,6 - - 9 5 - - NW 1006,6 8 0,0
13.08.2018 08:00:00 14,3 13,8 - - 8 4 - - NW 1006,3 9 0,0
13.08.2018 07:00:00 14,1 13,8 - - 8 4 - - NNW 1005,7 8 0,0
13.08.2018 06:00:00 13,8 13,4 - - 5 3 - - NNW 1005,5 11 0,0
13.08.2018 05:00:00 13,9 13,3 - - 4 2 - - NW 1005,4 50 0,0
13.08.2018 04:00:00 14,3 13,9 - - 5 3 - - NW 1005,4 16 0,0
13.08.2018 03:00:00 14,9 14,6 - - 9 5 - - WNW 1005,3 2,2 0,0
13.08.2018 02:00:00 15,2 14,8 - - 5 3 - - WSW 1005,4 4,8 0,0
13.08.2018 01:00:00 15,3 14,8 - - 8 4 - - SSW 1005,7 7 0,0
13.08.2018 00:00:00 15,3 14,8 - - 11 6 - - S 1006,0 6 0,0
12.08.2018 23:00:00 15,3 14,8 - - 11 6 - - S 1006,0 11 0,0
12.08.2018 22:00:00 15,7 15,0 - - 13 7 - - S 1006,2 13 0,0
12.08.2018 21:00:00 16,1 15,3 - - 11 6 - - SSE 1006,0 18 0,0
12.08.2018 20:00:00 16,6 15,5 - - 8 4 - - S 1005,8 30 0,0
12.08.2018 19:00:00 16,9 15,2 - - 16 9 - - S 1006,0 40 0,0
12.08.2018 18:00:00 16,9 15,5 - - 15 8 - - S 1006,4 22 0,0
12.08.2018 17:00:00 17,6 16,0 - - 21 11 - - S 1006,6 40 0,0
12.08.2018 16:00:00 17,5 16,1 - - 13 7 - - S 1006,9 30 0,0
12.08.2018 15:00:00 16,8 15,7 - - 16 9 - - SSW 1007,5 30 0,0
12.08.2018 14:00:00 16,0 15,8 - - 16 9 - - S 1008,1 3,7 0,0
12.08.2018 13:00:00 16,3 15,9 - - 18 10 - - SSW 1008,3 35 0,0
12.08.2018 12:00:00 16,0 15,9 - - 16 9 - - SSW 1008,3 13 0,4
12.08.2018 11:00:00 15,3 15,2 - - 18 10 - - SSW 1008,5 11 0,0
12.08.2018 10:00:00 15,1 15,1 16,7 16,0 18 10 - - SSW 1008,8 6 0,0
12.08.2018 09:00:00 14,9 14,9 - - 22 12 - - SSW 1008,8 3,0 0,6
12.08.2018 08:00:00 14,8 14,7 - - 21 11 - - SSW 1009,1 11 0,4
12.08.2018 07:00:00 14,7 14,7 - - 21 11 - - S 1009,4 10 0,2
12.08.2018 06:00:00 14,6 14,5 - - 21 11 - - SSW 1009,5 8 0,4
12.08.2018 05:00:00 14,4 14,3 - - 18 10 - - S 1010,0 11 2,4
12.08.2018 04:00:00 14,4 14,3 - - 24 13 - - SSW 1010,7 4,5 0,8
12.08.2018 03:00:00 14,5 14,4 - - 21 11 - - S 1011,5 10 0,4
12.08.2018 02:00:00 14,4 14,3 - - 22 12 - - SSW 1012,3 7 0,0
12.08.2018 01:00:00 14,4 14,2 - - 24 13 - - S 1013,0 8 0,2
12.08.2018 00:00:00 14,4 14,2 - - 22 12 - - SSW 1013,6 6 0,0
11.08.2018 23:00:00 14,6 14,3 - - 24 13 - - S 1014,2 8 0,0
11.08.2018 22:00:00 14,7 14,4 - - 22 12 - - S 1014,9 17 0,6
11.08.2018 21:00:00 14,5 14,0 - - 16 9 - - S 1015,5 6 1,0
11.08.2018 20:00:00 14,0 13,5 - - 18 10 - - S 1016,1 5 0,2
11.08.2018 19:00:00 14,1 13,5 - - 13 7 - - SSE 1016,8 35 0,8
11.08.2018 18:00:00 15,4 11,9 - - 22 12 - - SSW 1017,6 17 0,0
11.08.2018 17:00:00 17,5 9,8 - - 18 10 - - SSW 1017,7 40 0,0
11.08.2018 16:00:00 17,7 8,1 - - 21 11 - - SSW 1018,2 40 0,0
11.08.2018 15:00:00 18,3 7,4 - - 22 12 - - SSW 1018,8 45 0,0
11.08.2018 14:00:00 19,0 6,7 - - 22 12 - - SSW 1019,2 30 0,0
11.08.2018 13:00:00 17,9 7,1 - - 16 9 - - S 1020,0 50 0,0
11.08.2018 12:00:00 17,0 8,1 - - 15 8 - - SW 1020,6 30 0,0
11.08.2018 11:00:00 15,7 9,5 - - 13 7 - - SW 1021,1 23 0,0
11.08.2018 10:00:00 14,0 9,3 15,9 16,2 11 6 - - SW 1021,6 40 0,0
11.08.2018 09:00:00 12,3 8,8 - - 11 6 - - SW 1022,1 30 0,0
11.08.2018 08:00:00 10,5 7,3 - - 5 3 - - S 1022,1 35 0,0
11.08.2018 07:00:00 8,8 7,1 - - 2 1 - - ESE 1022,4 40 0,0
11.08.2018 06:00:00 7,1 5,8 - - 4 2 - - SSE 1022,3 45 0,0
11.08.2018 05:00:00 7,3 6,0 - - 5 3 - - SSE 1022,3 50 0,0
11.08.2018 04:00:00 7,8 6,7 - - 4 2 - - SSE 1022,1 30 0,0
11.08.2018 03:00:00 8,2 6,7 - - 4 2 - - N 1021,9 35 0,0
11.08.2018 02:00:00 8,6 7,3 - - 5 3 - - NW 1021,6 27 0,0
11.08.2018 01:00:00 8,8 7,3 - - 8 4 - - N 1021,2 30 0,0
11.08.2018 00:00:00 9,1 7,3 - - 4 2 - - N 1021,2 30 0,0
10.08.2018 23:00:00 10,2 8,0 - - 9 5 - - WNW 1020,6 40 0,0
10.08.2018 22:00:00 11,0 7,7 - - 9 5 - - WNW 1019,9 40 0,0
10.08.2018 21:00:00 10,9 6,1 - - 11 6 - - WNW 1019,4 50 0,0
10.08.2018 20:00:00 12,6 5,3 - - 16 9 - - WNW 1018,5 45 0,0
10.08.2018 19:00:00 14,0 6,2 - - 13 7 - - NW 1017,7 45 0,0
10.08.2018 18:00:00 13,6 7,6 - - 11 6 - - WNW 1017,2 45 0,0
10.08.2018 17:00:00 14,1 9,1 - - 11 6 - - NW 1016,7 35 0,0
10.08.2018 16:00:00 13,9 9,5 - - 13 7 - - W 1016,4 50 0,0
10.08.2018 15:00:00 12,3 8,0 - - 9 5 - - WNW 1016,5 40 0,0
10.08.2018 14:00:00 11,4 10,5 - - 8 4 - - N 1016,4 35 2,2
10.08.2018 13:00:00 9,3 8,9 - - 9 5 - - W 1017,0 14 9,0
10.08.2018 12:00:00 10,4 6,6 - - 26 14 - - SW 1016,1 4,0 0,6
10.08.2018 11:00:00 15,2 6,7 - - 13 7 - - W 1014,7 35 0,0
10.08.2018 10:00:00 13,3 6,9 16,7 16,4 21 11 - - WSW 1015,1 45 0,0
10.08.2018 09:00:00 12,0 9,4 - - 15 8 - - SW 1015,4 20 0,0
10.08.2018 08:00:00 10,3 8,7 - - 9 5 - - SW 1015,6 30 0,0
10.08.2018 07:00:00 9,5 8,5 - - 9 5 - - SSW 1015,8 28 0,0
10.08.2018 06:00:00 9,3 8,0 - - 11 6 - - S 1015,5 22 0,0
10.08.2018 05:00:00 8,9 7,7 - - 11 6 - - S 1015,4 30 0,0
10.08.2018 04:00:00 9,0 7,5 - - 11 6 - - S 1015,5 30 0,0
10.08.2018 03:00:00 9,1 7,2 - - 9 5 - - S 1015,8 25 0,0
10.08.2018 02:00:00 9,6 6,4 - - 9 5 - - S 1015,9 40 0,0
10.08.2018 01:00:00 10,1 5,9 - - 4 2 - - SSW 1015,8 40 0,0
10.08.2018 00:00:00 10,2 5,7 - - 4 2 - - SW 1015,7 45 0,0
09.08.2018 23:00:00 10,2 5,2 - - 2 1 - - N 1015,5 35 0,0
09.08.2018 22:00:00 10,9 5,4 - - 4 2 - - N 1014,9 40 0,0
09.08.2018 21:00:00 12,3 5,5 - - 5 3 - - N 1014,7 45 0,0
09.08.2018 20:00:00 14,8 5,2 - - 9 5 - - NNW 1013,8 35 0,0

tt = temperature
td = dewpoint
tt -20cm = temperature -20cm
tt -100cm = temperature -100cm
ff = wind speed
fx = gusts
dd = wind direction
ppp = reduced air pressure
vv = visibility
rr = precipitation

Next stations